Orbital Elements at Epoch 2459200.5 (2020-Dec-17.0) TDB
Reference: JPL 23 (heliocentric ecliptic J2000)
Element | Value | Uncertainty (1-sigma) | Units |
e | .2439673658717951 | 3.4349e-08 | |
a | 3.931959698513834 | 3.936e-08 | au |
q | 2.972689848153356 | 1.5207e-07 | au |
i | 9.518158386438296 | 5.2566e-06 | deg |
node | 183.8566237250814 | 2.1579e-05 | deg |
peri | 259.9815282469942 | 2.4574e-05 | deg |
M | 315.7774114894038 | 1.2465e-05 | deg |
tp | 2459550.327279429217 (2021-Dec-01.82727943) | 0.00010223 | TDB |
period | 2847.816576009384 7.80 | 4.2761e-05 1.171e-07 | d yr |
n | .1264126359235061 | 1.8981e-09 | deg/d |
Q | 4.891229548874312 | 4.8963e-08 | au |
|
| | Orbit Determination Parameters
Additional Information
|